Change the Weather History Date:

Friday, December 20, 2013

  Actual Average Record
Temperature  
Mean Temperature 39 °F 38 °F  
Max Temperature 45 °F 50 °F 67 °F (1955)
Min Temperature 33 °F 25 °F 7 °F (1967)
Degree Days  
Heating Degree Days 26    
Month to date heating degree days 546  
Since 1 July heating degree days 1452  
Cooling Degree Days 0    
Month to date cooling degree days 0  
Year to date cooling degree days 1127  
Moisture  
Dew Point 32 °F    
Average Humidity 84    
Maximum Humidity 100    
Minimum Humidity 57    
Precipitation  
Precipitation 0.05 in 0.02 in 0.63 in (1952)
Month to date precipitation 0.31 0.59  
Year to date precipitation 12.94 13.60  
Sea Level Pressure  
Sea Level Pressure 29.70 in    
Wind  
Wind Speed 6 mph (NNW)    
Max Wind Speed 13 mph    
Max Gust Speed 15 mph    
Visibility 6 miles    
Events Fog , Rain    
T = Trace of Precipitation, MM = Missing Value Source: NWS Daily Summary

Daily Weather History Graph

Daily Weather History Graph

Search for Another Location

Airport or City:

Trip Planner

Search our weather history database for the weather conditions in past years. The results will help you decide how hot, cold, wet, or windy it might be!

Date:

Astronomy

Dec. 20, 2013 Rise Set
Actual Time 7:32 AM MST 5:22 PM MST
Civil Twilight 7:04 AM MST 5:50 PM MST
Nautical Twilight 6:32 AM MST 6:22 PM MST
Astronomical Twilight 6:02 AM MST 6:52 PM MST
Moon 8:39 PM MST (12/20) 9:34 AM MST (12/20)
Length of Visible Light 10h 46m
Length of Day
9h 50m
Waning Gibbous, 90% of the Moon is Illuminated
Dec 20
Waning Gibbous
Dec 25
Last Quarter
Jan 1
New
Jan 7
First Quarter
Jan 15
Full

Hourly Weather History & Observations

Time (MST) Temp. Windchill Dew Point Humidity Pressure Visibility Wind Dir Wind Speed Gust Speed Precip Events Conditions
12:01 AM 35.1 °F 31.0 °F 32.0 °F 89% 29.74 in 4.0 mi East 4.6 mph - 0.02 in Rain Rain
12:24 AM 35.1 °F - 33.1 °F 92% 29.73 in 10.0 mi Calm Calm - 0.02 in   Overcast
12:53 AM 36.0 °F 33.3 °F 33.1 °F 89% 29.64 in 10.0 mi SSE 3.5 mph - 0.02 in Rain Light Rain
1:05 AM 36.0 °F 33.3 °F 33.1 °F 89% 29.72 in 4.0 mi East 3.5 mph - 0.01 in Rain Light Rain
1:17 AM 36.0 °F 33.3 °F 33.1 °F 89% 29.72 in 7.0 mi Variable 3.5 mph - 0.01 in Rain Light Rain
1:29 AM 36.0 °F 32.1 °F 33.1 °F 89% 29.72 in 5.0 mi East 4.6 mph - 0.02 in Rain Light Rain
1:46 AM 35.1 °F 29.3 °F 32.0 °F 89% 29.72 in 9.0 mi SE 6.9 mph - 0.02 in Rain Light Rain
1:53 AM 35.1 °F 32.2 °F 32.0 °F 89% 29.62 in 9.0 mi Variable 3.5 mph - 0.02 in Rain Light Rain
2:26 AM 35.1 °F 31.0 °F 33.1 °F 92% 29.71 in 10.0 mi NW 4.6 mph - 0.02 in   Overcast
2:53 AM 34.0 °F - 32.0 °F 92% 29.64 in 7.0 mi Calm Calm - 0.02 in   Overcast
3:53 AM 34.0 °F 28.8 °F 32.0 °F 92% 29.65 in 9.0 mi NW 5.8 mph - 0.00 in   Overcast
4:13 AM 34.0 °F 28.0 °F 32.0 °F 92% 29.71 in 1.8 mi NW 6.9 mph - N/A   Overcast
4:26 AM 34.0 °F 29.8 °F 32.0 °F 92% 29.71 in 0.5 mi NW 4.6 mph - N/A Fog Fog
4:37 AM 34.0 °F 28.0 °F 32.0 °F 92% 29.71 in 0.2 mi NW 6.9 mph - N/A Fog Fog
4:48 AM 33.8 °F 28.6 °F 32.0 °F 93% 29.70 in 0.5 mi NW 5.8 mph - N/A Fog Fog
4:53 AM 34.0 °F 28.0 °F 32.0 °F 92% 29.63 in 0.2 mi NW 6.9 mph - N/A Fog Fog
5:53 AM 34.0 °F - 33.1 °F 96% 29.65 in 0.5 mi Calm Calm - N/A Fog Fog
6:10 AM 34.0 °F - 32.0 °F 92% 29.70 in 2.5 mi Calm Calm - N/A   Overcast
6:17 AM 35.1 °F 32.2 °F 32.0 °F 89% 29.70 in 6.0 mi NNE 3.5 mph - N/A   Overcast
6:50 AM 33.8 °F - 32.0 °F 93% 29.70 in 10.0 mi Calm Calm - N/A   Overcast
6:53 AM 34.0 °F - 33.1 °F 96% 29.65 in 10.0 mi Calm Calm - N/A   Overcast
7:53 AM 35.1 °F - 32.0 °F 89% 29.66 in 4.0 mi Calm Calm - N/A   Overcast
8:53 AM 36.0 °F 32.1 °F 32.0 °F 86% 29.67 in 4.0 mi North 4.6 mph - N/A   Overcast
9:21 AM 35.1 °F 29.3 °F 33.1 °F 92% 29.72 in 0.2 mi North 6.9 mph - N/A Fog Fog
9:29 AM 35.1 °F 28.6 °F 33.1 °F 92% 29.73 in 0.2 mi North 8.1 mph - N/A Fog Fog
9:53 AM 35.1 °F 28.6 °F 33.1 °F 92% 29.69 in 0.2 mi North 8.1 mph - N/A Fog Fog
10:06 AM 35.1 °F 28.6 °F 33.1 °F 92% 29.73 in 1.0 mi NNW 8.1 mph - N/A   Mist
10:13 AM 35.1 °F 31.0 °F 33.1 °F 92% 29.74 in 3.0 mi North 4.6 mph - N/A   Overcast
10:49 AM 35.6 °F 29.9 °F 33.8 °F 93% 29.74 in 5.0 mi North 6.9 mph - N/A   Overcast
10:53 AM 36.0 °F 32.1 °F 34.0 °F 93% 29.70 in 5.0 mi North 4.6 mph - N/A   Overcast
11:15 AM 37.0 °F 32.4 °F 33.1 °F 86% 29.74 in 10.0 mi North 5.8 mph - N/A   Overcast
11:53 AM 39.0 °F 34.0 °F 34.0 °F 82% 29.69 in 10.0 mi NNW 6.9 mph - N/A   Overcast
12:46 PM 39.0 °F 33.4 °F 34.0 °F 82% 29.72 in 10.0 mi NNW 8.1 mph - N/A   Mostly Cloudy
12:53 PM 39.9 °F 33.4 °F 34.0 °F 79% 29.66 in 10.0 mi NW 10.4 mph - N/A   Mostly Cloudy
1:09 PM 39.9 °F 33.9 °F 34.0 °F 79% 29.72 in 10.0 mi NNW 9.2 mph - N/A   Overcast
1:53 PM 41.0 °F 35.2 °F 32.0 °F 70% 29.66 in 10.0 mi NNW 9.2 mph - N/A   Mostly Cloudy
2:53 PM 42.1 °F 40.2 °F 30.0 °F 62% 29.66 in 10.0 mi WNW 3.5 mph - N/A   Mostly Cloudy
3:53 PM 45.0 °F 39.3 °F 32.0 °F 60% 29.66 in 10.0 mi WNW 11.5 mph - N/A   Mostly Cloudy
4:53 PM 43.0 °F 38.2 °F 28.0 °F 56% 29.66 in 10.0 mi NW 8.1 mph - N/A   Scattered Clouds
5:53 PM 42.1 °F 37.1 °F 28.9 °F 60% 29.68 in 10.0 mi NNW 8.1 mph - N/A   Scattered Clouds
6:53 PM 39.9 °F 35.8 °F 30.0 °F 68% 29.70 in 10.0 mi NW 5.8 mph - N/A   Overcast
7:53 PM 37.0 °F 32.4 °F 28.0 °F 70% 29.73 in 10.0 mi West 5.8 mph - N/A   Partly Cloudy
8:53 PM 37.9 °F 32.7 °F 28.0 °F 68% 29.73 in 10.0 mi WNW 6.9 mph - N/A   Overcast
9:53 PM 37.9 °F 32.1 °F 28.9 °F 70% 29.74 in 10.0 mi WNW 8.1 mph - N/A   Overcast
10:53 PM 36.0 °F 29.6 °F 28.0 °F 73% 29.75 in 10.0 mi WNW 8.1 mph - N/A   Partly Cloudy
11:53 PM 35.1 °F 29.3 °F 28.0 °F 76% 29.75 in 10.0 mi WNW 6.9 mph - N/A   Clear